Weather History for Tacoma, WA

Change the Weather History Date:

Tuesday, October 11, 2011

  Actual Average Record
Temperature  
Mean Temperature 54 °F -  
Max Temperature 58 °F 59 °F 88 °F (1991)
Min Temperature 51 °F 41 °F 28 °F (2009)
Degree Days  
Heating Degree Days 10    
Growing Degree Days 4 (Base 50)    
Moisture  
Dew Point 52 °F    
Average Humidity 90    
Maximum Humidity 95    
Minimum Humidity 82    
Precipitation  
Precipitation 0.99 in - - ()
Sea Level Pressure  
Sea Level Pressure 29.83 in    
Wind  
Wind Speed 11 mph (SSW)    
Max Wind Speed 22 mph    
Max Gust Speed 28 mph    
Visibility 9 miles    
Events Rain    
Averages and records for this station are not official NWS values.
T = Trace of Precipitation, MM = Missing Value Source: NWS Daily Summary

Daily Weather History Graph

Daily Weather History Graph

Search for Another Location

Airport:

Trip Planner

Search our weather history database for the weather conditions in past years. The results will help you decide how hot, cold, wet, or windy it might be!

Date:

Astronomy

Oct. 11, 2011 Rise Set
Actual Time 7:22 AM PDT 6:30 PM PDT
Civil Twilight 6:51 AM PDT 7:00 PM PDT
Nautical Twilight 6:16 AM PDT 7:36 PM PDT
Astronomical Twilight 5:40 AM PDT 8:11 PM PDT
Moon 6:00 PM PDT (10/11) 7:08 AM PDT (10/11)
Length of Visible Light 12h 09m
Length of Day
11h 07m
Full, 100% of the Moon is Illuminated
Oct 11
Full
Oct 11
Full
Oct 19
Last Quarter
Oct 26
New
Nov 2
First Quarter

Hourly Weather History & Observations

Time (PDT) Temp. Dew Point Humidity Pressure Visibility Wind Dir Wind Speed Gust Speed Precip Events Conditions
12:58 AM 54.5 °F 50.5 °F 86% 29.62 in 10.0 mi SSE 5.8 mph - N/A   Mostly Cloudy
1:28 AM 53.6 °F 50.0 °F 88% 29.58 in 10.0 mi South 10.4 mph - N/A Rain Light Rain
1:58 AM 54.7 °F 51.8 °F 90% 29.62 in 7.0 mi SSW 10.4 mph 23.0 mph 0.03 in Rain Light Rain
2:07 AM 55.4 °F 51.8 °F 88% 29.59 in 10.0 mi South 11.5 mph - N/A   Overcast
2:26 AM 53.6 °F 51.8 °F 94% 29.60 in 10.0 mi South 12.7 mph - N/A Rain Light Rain
2:58 AM 54.7 °F 52.3 °F 92% 29.63 in 10.0 mi South 16.1 mph - 0.03 in Rain Light Rain
2:59 AM 55.4 °F 51.8 °F 88% 29.59 in 10.0 mi South 17.3 mph - N/A   Overcast
3:00 AM 55.4 °F 51.8 °F 88% 29.59 in 10.0 mi South 17.3 mph - N/A Rain Light Rain
3:58 AM 53.8 °F 51.8 °F 93% 29.64 in 7.0 mi South 13.8 mph - 0.17 in Rain Rain
4:00 AM 53.6 °F 51.8 °F 94% 29.60 in 7.0 mi SSW 12.7 mph - N/A Rain Rain
4:10 AM 53.6 °F 51.8 °F 94% 29.62 in 3.0 mi West 8.1 mph - N/A Rain Heavy Rain
4:15 AM 53.6 °F 51.8 °F 94% 29.61 in 3.0 mi West 6.9 mph - N/A Rain Heavy Rain
4:20 AM 53.6 °F 51.8 °F 94% 29.62 in 2.5 mi West 6.9 mph - N/A Rain Heavy Rain
4:25 AM 53.6 °F 51.8 °F 94% 29.61 in 2.0 mi WSW 4.6 mph - N/A Rain Heavy Rain
4:30 AM 53.6 °F 51.8 °F 94% 29.61 in 3.0 mi SSE 5.8 mph - N/A Rain Light Rain
4:39 AM 53.6 °F 51.8 °F 94% 29.62 in 10.0 mi SSW 10.4 mph - N/A   Overcast
4:44 AM 53.6 °F 51.8 °F 94% 29.62 in 10.0 mi SSW 8.1 mph - N/A   Overcast
4:49 AM 53.6 °F 51.8 °F 94% 29.62 in 10.0 mi South 8.1 mph - N/A   Overcast
4:54 AM 53.6 °F 51.8 °F 94% 29.63 in 10.0 mi South 8.1 mph - N/A   Overcast
4:56 AM 53.6 °F 51.8 °F 94% 29.63 in 10.0 mi South 10.4 mph - N/A Rain Light Rain
4:58 AM 53.8 °F 52.2 °F 94% 29.67 in 10.0 mi South 10.4 mph - 0.16 in Rain Light Rain
5:59 AM 53.1 °F 50.4 °F 91% 29.71 in 10.0 mi SSW 12.7 mph 19.6 mph 0.04 in Rain Light Rain
6:09 AM 53.6 °F 50.0 °F 88% 29.67 in 10.0 mi South 10.4 mph - N/A   Overcast
6:44 AM 53.6 °F 51.8 °F 94% 29.69 in 10.0 mi SW 6.9 mph - N/A   Overcast
6:49 AM 53.6 °F 51.8 °F 94% 29.69 in 10.0 mi SSW 6.9 mph - N/A   Mostly Cloudy
6:54 AM 53.6 °F 51.8 °F 94% 29.69 in 10.0 mi SSW 9.2 mph - N/A   Mostly Cloudy
6:58 AM 52.9 °F 51.1 °F 94% 29.74 in 10.0 mi SSW 9.2 mph - 0.00 in   Mostly Cloudy
7:38 AM 51.8 °F 50.0 °F 94% 29.72 in 10.0 mi South 11.5 mph - N/A Rain Light Rain
7:59 AM 52.0 °F 50.0 °F 93% 29.77 in 10.0 mi South 10.4 mph - 0.01 in Rain Light Rain
8:07 AM 51.8 °F 50.0 °F 94% 29.73 in 10.0 mi South 9.2 mph - N/A   Overcast
8:10 AM 51.8 °F 50.0 °F 94% 29.73 in 10.0 mi South 9.2 mph - N/A   Light Drizzle
8:24 AM 51.8 °F 50.0 °F 94% 29.74 in 10.0 mi South 11.5 mph - N/A   Mostly Cloudy
8:50 AM 53.6 °F 51.8 °F 94% 29.75 in 10.0 mi South 15.0 mph - N/A Rain Light Rain
8:58 AM 54.0 °F 50.9 °F 89% 29.80 in 10.0 mi SSW 12.7 mph - 0.00 in Rain Light Rain
9:18 AM 53.6 °F 51.8 °F 94% 29.77 in 6.0 mi South 10.4 mph - N/A Rain Light Rain
9:22 AM 53.6 °F 51.8 °F 94% 29.77 in 9.0 mi South 11.5 mph - N/A   Mostly Cloudy
9:27 AM 53.6 °F 51.8 °F 94% 29.77 in 10.0 mi SSW 10.4 mph - N/A   Mostly Cloudy
9:58 AM 56.3 °F 51.8 °F 85% 29.83 in 10.0 mi SSW 13.8 mph - 0.01 in   Partly Cloudy
9:59 AM 55.4 °F 51.8 °F 88% 29.79 in 10.0 mi SSW 15.0 mph - N/A Rain Light Rain
10:19 AM 53.6 °F 51.8 °F 94% 29.81 in 2.0 mi South 15.0 mph - N/A Rain Rain
10:26 AM 53.6 °F 51.8 °F 94% 29.81 in 2.0 mi South 13.8 mph - N/A Rain Rain
10:31 AM 53.6 °F 51.8 °F 94% 29.81 in 2.5 mi WSW 4.6 mph - N/A Rain Light Rain
10:36 AM 53.6 °F 51.8 °F 94% 29.81 in 2.5 mi Variable 3.5 mph - N/A Rain Light Rain
10:41 AM 53.6 °F 51.8 °F 94% 29.82 in 1.8 mi WSW 10.4 mph - N/A Rain Heavy Rain
10:51 AM 55.4 °F 51.8 °F 88% 29.83 in 6.0 mi SSW 15.0 mph 20.7 mph N/A Rain Light Rain
10:58 AM 54.9 °F 51.8 °F 89% 29.87 in 10.0 mi SSW 11.5 mph 20.7 mph 0.19 in Rain Light Rain
11:08 AM 55.4 °F 51.8 °F 88% 29.84 in 9.0 mi South 11.5 mph - N/A Rain Light Rain
11:13 AM 55.4 °F 51.8 °F 88% 29.84 in 10.0 mi South 12.7 mph - N/A   Overcast
11:15 AM 55.4 °F 51.8 °F 88% 29.84 in 10.0 mi South 10.4 mph - N/A Rain Light Rain
11:16 AM 55.4 °F 51.8 °F 88% 29.84 in 10.0 mi South 9.2 mph - N/A   Overcast
11:21 AM 55.4 °F 51.8 °F 88% 29.84 in 10.0 mi South 13.8 mph - N/A Rain Light Rain
11:26 AM 55.4 °F 51.8 °F 88% 29.84 in 9.0 mi South 10.4 mph - N/A Rain Light Rain
11:31 AM 55.4 °F 53.6 °F 94% 29.84 in 9.0 mi South 9.2 mph - N/A Rain Light Rain
11:32 AM 55.4 °F 53.6 °F 94% 29.84 in 10.0 mi South 9.2 mph - N/A   Overcast
11:47 AM 55.4 °F 51.8 °F 88% 29.85 in 10.0 mi South 12.7 mph - N/A   Overcast
11:50 AM 55.4 °F 51.8 °F 88% 29.84 in 10.0 mi South 10.4 mph - N/A Rain Light Rain
11:55 AM 55.4 °F 51.8 °F 88% 29.84 in 10.0 mi South 11.5 mph - N/A Rain Light Rain
11:58 AM 55.9 °F 52.3 °F 88% 29.89 in 10.0 mi South 10.4 mph - 0.01 in Rain Light Rain
11:59 AM 55.4 °F 51.8 °F 88% 29.85 in 10.0 mi South 12.7 mph - N/A   Overcast
12:23 PM 55.4 °F 51.8 °F 88% 29.86 in 7.0 mi South 21.9 mph 27.6 mph N/A Rain Light Rain
12:24 PM 55.4 °F 51.8 °F 88% 29.86 in 6.0 mi South 19.6 mph 27.6 mph N/A Rain Light Rain
12:58 PM 55.2 °F 52.5 °F 91% 29.91 in 9.0 mi South 11.5 mph - 0.06 in Rain Light Rain
1:03 PM 55.4 °F 51.8 °F 88% 29.87 in 9.0 mi SSW 9.2 mph - N/A Rain Light Rain
1:10 PM 55.4 °F 53.6 °F 94% 29.87 in 5.0 mi SW 5.8 mph - N/A Rain Light Rain
1:15 PM 55.4 °F 53.6 °F 94% 29.88 in 1.5 mi SW 9.2 mph - N/A Rain Light Rain
1:25 PM 55.4 °F 51.8 °F 88% 29.88 in 4.0 mi SSW 11.5 mph 21.9 mph N/A Rain Light Rain
1:58 PM 56.8 °F 54.5 °F 92% 29.92 in 10.0 mi South 13.8 mph - 0.08 in   Light Drizzle
1:59 PM 57.2 °F 55.4 °F 94% 29.89 in 10.0 mi South 12.7 mph - N/A   Overcast
2:04 PM 57.2 °F 53.6 °F 88% 29.89 in 10.0 mi South 16.1 mph - N/A   Overcast
2:09 PM 57.2 °F 53.6 °F 88% 29.89 in 10.0 mi South 13.8 mph - N/A   Mostly Cloudy
2:53 PM 57.2 °F 53.6 °F 88% 29.90 in 10.0 mi South 13.8 mph - N/A Rain Light Rain
2:58 PM 57.7 °F 53.8 °F 87% 29.94 in 10.0 mi South 12.7 mph - 0.00 in Rain Light Rain
3:03 PM 57.2 °F 53.6 °F 88% 29.90 in 10.0 mi South 12.7 mph - N/A   Mostly Cloudy
3:12 PM 57.2 °F 53.6 °F 88% 29.90 in 10.0 mi South 12.7 mph - N/A Rain Light Rain
3:24 PM 57.2 °F 53.6 °F 88% 29.91 in 6.0 mi SSW 12.7 mph - N/A Rain Rain
3:55 PM 57.2 °F 53.6 °F 88% 29.92 in 10.0 mi SSW 10.4 mph - N/A   Overcast
3:56 PM 57.2 °F 53.6 °F 88% 29.92 in 10.0 mi SSW 10.4 mph - N/A Rain Light Rain
3:58 PM 56.3 °F 53.2 °F 89% 29.96 in 10.0 mi SSW 11.5 mph - 0.10 in Rain Light Rain
4:03 PM 57.2 °F 53.6 °F 88% 29.92 in 9.0 mi SSW 10.4 mph - N/A Rain Light Rain
4:15 PM 57.2 °F 53.6 °F 88% 29.93 in 10.0 mi SW 10.4 mph 24.2 mph N/A   Overcast
4:58 PM 58.5 °F 52.9 °F 82% 29.97 in 10.0 mi SSW 12.7 mph - 0.00 in   Mostly Cloudy
5:18 PM 57.2 °F 51.8 °F 82% 29.94 in 10.0 mi SSW 15.0 mph - N/A   Overcast
5:27 PM 57.2 °F 51.8 °F 82% 29.95 in 10.0 mi SSW 15.0 mph - N/A Rain Light Rain
5:32 PM 55.4 °F 51.8 °F 88% 29.95 in 10.0 mi SSW 13.8 mph - N/A Rain Light Rain
5:38 PM 55.4 °F 50.0 °F 82% 29.95 in 10.0 mi SSW 16.1 mph 23.0 mph N/A   Overcast
5:58 PM 55.6 °F 50.5 °F 83% 30.00 in 10.0 mi SW 12.7 mph - 0.00 in   Overcast
6:53 PM 53.6 °F 50.0 °F 88% 29.99 in 10.0 mi SSW 11.5 mph - N/A Rain Light Rain
6:58 PM 54.3 °F 49.8 °F 85% 30.03 in 10.0 mi SSW 10.4 mph - 0.00 in Rain Light Rain
7:04 PM 53.6 °F 50.0 °F 88% 30.00 in 10.0 mi South 8.1 mph - N/A   Mostly Cloudy
7:58 PM 53.1 °F 50.2 °F 90% 30.06 in 10.0 mi South 8.1 mph - 0.00 in   Overcast
8:19 PM 53.6 °F 50.0 °F 88% 30.03 in 10.0 mi South 8.1 mph - N/A Rain Light Rain
8:46 PM 53.6 °F 50.0 °F 88% 30.04 in 10.0 mi South 10.4 mph - N/A   Overcast
8:58 PM 52.9 °F 50.0 °F 90% 30.08 in 10.0 mi South 10.4 mph - 0.01 in   Overcast
9:48 PM 51.8 °F 50.0 °F 94% 30.07 in 7.0 mi South 8.1 mph - N/A Rain Rain
9:58 PM 52.0 °F 50.0 °F 93% 30.12 in 5.0 mi South 12.7 mph - 0.02 in Rain Light Rain
10:48 PM 51.8 °F 50.0 °F 94% 30.09 in 10.0 mi South 8.1 mph - N/A   Overcast
10:58 PM 51.8 °F 50.5 °F 95% 30.14 in 10.0 mi South 8.1 mph - 0.05 in   Overcast
11:33 PM 51.8 °F 50.0 °F 94% 30.11 in 10.0 mi South 10.4 mph - N/A Rain Light Rain
11:46 PM 51.8 °F 50.0 °F 94% 30.11 in 8.0 mi South 16.1 mph - N/A   Overcast
11:52 PM 51.8 °F 50.0 °F 94% 30.11 in 8.0 mi South 10.4 mph - N/A Rain Light Rain
11:58 PM 51.8 °F 49.3 °F 91% 30.15 in 10.0 mi South 10.4 mph - 0.02 in Rain Light Rain